CZ-6A DEB, 61178

Orbit data source: Space-Track

CZ-6A DEB, 61178 is space debris in LEO originally from a launch on Tue, 06 Aug 2024 UTC launched from the Taiyaun Space Center, China (TSC). Debris objects in space refer to the collection of defunct objects orbiting the Earth. Examples of debris include non-operational satellites, rocket bodies, and fragments generated from explosions, collisions, or faulty payload assembly.

Loading next visibility...
Identifier
61178, 2024-140RY
Orbit
LEO
Country
Flag of CNCN / PRC
Related business
Manufacturer
SAST
Mission
Spacecraft
Bus & Motor
Unknown
Mass
Unknown
Launch date (UTC)
2024-08-06 (2 years ago)
Launch vehicle
Unknown
Launch site
Taiyaun Space Center, China (TSC)
Object type
Payload
Rocket body
Debris
Shape & HBR
Unknown shape, 0.1 m
Radar Cross Section
Medium (>0.1 m² and <1 m²)

Expand to show TLE details & history
Last TLE update: 18 hours ago

TLE from 18 hours ago
0 CZ-6A DEB
1 61178U 24140RY  26171.23173000  .00000692  00000-0  28510-3 0  9993
2 61178  88.9543 269.9817 0038123 205.5770 154.3539 14.25424380 94924
Epoch: 2026-06-20T05:33Z
TLE epoch observation values (Epoch: 2026-06-20T05:33:41.472Z)
Latitude
0.00007°
Longitude
-81.89041°
Altitude
834.845 km
Speed
7.423 km/s
True Right ascension
17h 59m 55s
True Declination
0° 00' 00"
Sunlit
Object was in full shadow at epoch
Visualization orbit readout
Latitude
Unknown
Longitude
Unknown
Altitude
Unknown
Speed
Unknown
Apparent Right ascension
Unknown
Apparent Declination
Unknown
Sunlit
N/A
Visualization observer readout
Local Sidereal Time
10:20:31
Azimuth
Unknown
Elevation
Unknown
Doppler factor
Unknown
Orbital elements
Apogee altitude
831.39 km
Perigee altitude
776.629 km
Semi-major axis
7,182.147 km
Eccentricity
0.00381
Inclination
88.9543°
RAAN
269.9817°
Arg. of periapsis
205.577°
True anomaly
154.54217°
Mean anomaly
154.3539°
Eccentric anomaly
154.44811°
Mean motion
3.56584 °/min
Orbital period
100.96 mins
BSTAR
0.0002851
Loading maneuver chart data...
Computing Atmospheric mass density...
Loading historical data...
Loading historical data...
Loading historical data...
Loading historical data...
Loading historical data...
Loading historical data...
Loading historical data...

Documentation

Showing up to 5 results
|